Location: ??????
(36.0418°N, 43.6351°E)
Time: 22:32:48
(UTC+00:00)

CZ-2C R/B - Pass Details

Date: 07 March 2021
Orbit: 783 x 871 km, 98.2° (Epoch: 18 April)

Event Time Altitude Azimuth Distance (km) Brightness Sun altitude
Rises 02:45:56 0° 147° (SSE) 3,433 6.4 -9.3°
Reaches altitude 10° 02:48:25 10° 141° (SE) 2,506 5.8 -8.8°
Maximum altitude 02:53:39 43° 71° (ENE) 1,209 4.2 -7.7°
Drops below altitude 10° 02:58:55 10° 2° (N) 2,522 5.2 -6.6°
Sets 03:01:24 0° 356° (N) 3,458 5.8 -6.1°
